Погода в Перово

Россия / Республика Крым     44°55′39″N   34°03′34″E
темп.,
°C
ветер,
м/с
пор.,
м/с
влажн.,
%
обл.,
%
осадки,
мм/ч
давл.,
гПа
погр.,
м
12 апреля, пн
пн1200:00+7св2387100 0.6 102093
03:00+6св2596100 3.1 1020185
06:00+6св2497100 0.4 1020181
09:00+7св2396100 0.4 1020237
12:00+10сз1184100 0.0 1020539
15:00+11зсз3380100 0.1 1020609
18:00+10зюз2285100 0.1 1021375
21:00+8зюз2393100 0.1 1022119
13 апреля, вт
вт1300:00+8юз2394100 0.0 1021106
03:00+7зюз239790 0.0 1021107
06:00+7юз129796 0.0 102194
09:00+9юз238698 0.0 1021313
12:00+12з2269100 0.1 1021918
15:00+11з3377100 0.1 1021538
18:00+9з4583100 0.0 1020379
21:00+7ссз0190100 0.0 102138
14 апреля, ср
ср1400:00+6в119254 0.0 101910
03:00+5в11915 0.0 101910
06:00+5в22855 0.0 101819
09:00+10в2261100 0.0 1017367
12:00+15ююв1245100 0.0 10161247
15:00+15юз4450100 0.0 1015837
18:00+13ююв235681 0.0 1014565
21:00+9юв346644 0.0 101492
15 апреля, чт
чт1500:00+8юв2370100 0.0 101439
03:00+9юв2268100 0.0 101325
06:00+9в0171100 0.1 101314
09:00+8юз2395100 5.1 1013161
12:00+11юз5678100 4.0 1013890
15:00+9зюз7990100 4.4 1014737
18:00+8юз5884100 0.1 1015852
21:00+7юз5988100 0.1 1015546
16 апреля, пт
пт1600:00+6ююз498569 0.0 1014329
03:00+7юз5997100 0.2 1013645
06:00+7зюз61198100 0.5 1014752
09:00+8зюз6993100 0.8 1015810
12:00+10зюз8117266 0.3 10161212
15:00+10зюз8107366 0.8 10161095
18:00+8зюз798184 0.3 1017858
21:00+6юз489088 0.4 1018518